Location: ?????
(38.3715°N, 23.0573°E)
Time: 09:34:56
(UTC+00:00)

Lacrosse 5 - Pass Details

Date: 03 August 2024
Orbit: 714 x 724 km, 57.0° (Epoch: 09 March)

Event Time Altitude Azimuth Distance (km) Brightness Sun altitude
Rises 18:15:10 0° 325° (NW) 3,120 6.5 -7.8°
Reaches altitude 10° 18:18:09 10° 342° (NNW) 2,199 5.1 -8.3°
Maximum altitude 18:21:52 20° 30° (NNE) 1,616 3.7 -9.0°
Drops below altitude 10° 18:25:35 10° 77° (ENE) 2,196 4.0 -9.6°
Enters shadow 18:26:37 - 85° (E) 2,493 4.2 -9.8°
